Simultaneous Nadir Overpasses (SNOs) Predictions

Prediction of SNOs between GOES-16 and NOAA-20 Satellite Orbit:

Table of predicted SNOs for the next 14.0 days since TLE Epoch: 4/24/2021
Index Date Time (GOES-16) GOES-16 Lat,Lon NOAA-20 Lat,Lon Distance(km) Time Diff (sec)
1 04/24/2021 18:10:43 0.03, -75.18 0.92, -71.26 447.14 80
2 04/26/2021 06:32:32 -0.02, -75.19 0.26, -76.53 152.52 80
3 04/27/2021 06:11:07 -0.03, -75.19 -0.74, -72.00 363.84 80
4 04/28/2021 18:33:05 0.02, -75.19 -0.44, -77.31 241.13 80
5 04/29/2021 18:17:00 0.03, -75.20 0.56, -72.78 275.60 80
6 05/01/2021 06:38:48 -0.02, -75.22 0.62, -78.05 323.25 80
7 05/02/2021 06:17:24 -0.02, -75.22 -0.38, -73.52 193.58 80
8 05/03/2021 18:39:21 0.01, -75.23 -0.79, -78.83 410.76 80
9 05/04/2021 18:23:17 0.01, -75.24 0.21, -74.30 106.85 80
10 05/06/2021 06:45:05 -0.01, -75.28 0.96, -79.58 490.11 80
11 05/07/2021 06:23:41 -0.01, -75.30 -0.03, -75.05 28.00 80
